QPF
0.00 0.00 0.00 0.00 0.00 0.00 0.00 0.00 0.01 0.01 0.02 0.03 0.03 0.03 0.03 0.02 0.01 0.01 0.01 0.01 0.01 0.02 0.02 0.02 0.02 0.03 0.03 0.02 0.01 0.00 0.00 0.00 0.00 0.00 0.00 0.00 0.00 0.00 0.00 0.00 0.01 0.04 0.01
0.00 0.00 0.00 0.00 0.00 0.00 0.00 0.00 0.01 0.01 0.02 0.02 0.02 0.02 0.02 0.02 0.02 0.01 0.01 0.01 0.01 0.02 0.02 0.03 0.02 0.02 0.02 0.01 0.00 0.00 0.00 0.00 0.00 0.00 0.00 0.02 0.01 0.00 0.00 0.01 0.02 0.04 0.01
0.00 0.00 0.00 0.00 0.00 0.00 0.00 0.00 0.01 0.02 0.02 0.02 0.02 0.01 0.01 0.01 0.01 0.01 0.01 0.00 0.01 0.01 0.02 0.02 0.01 0.01 0.00 0.00 0.00 0.00 0.00 0.00 0.00 0.00 0.02 0.15 0.15 0.03 0.00 0.01 0.01 0.01 0.01
0.00 0.00 0.00 0.00 0.00 0.00 0.00 0.00 0.00 0.01 0.02 0.02 0.02 0.01 0.01 0.01 0.00 0.00 0.00 0.00 0.01 0.01 0.01 0.01 0.01 0.00 0.00 0.00 0.00 0.00 0.00 0.00 0.00 0.00 0.04 0.19 0.27 0.11 0.01 0.00 0.01 0.01 0.02
0.00 0.00 0.00 0.00 0.00 0.00 0.00 0.00 0.00 0.01 0.01 0.01 0.01 0.01 0.00 0.00 0.00 0.00 0.00 0.00 0.00 0.00 0.00 0.00 0.00 0.00 0.00 0.00 0.00 0.00 0.00 0.00 0.00 0.02 0.06 0.21 0.30 0.12 0.03 0.01 0.01 0.01 0.02
0.00 0.00 0.00 0.00 0.00 0.00 0.00 0.00 0.00 0.00 0.00 0.01 0.01 0.00 0.00 0.00 0.00 0.00 0.00 0.00 0.00 0.00 0.00 0.00 0.00 0.00 0.00 0.00 0.00 0.00 0.00 0.00 0.02 0.04 0.06 0.22 0.29 0.12 0.04 0.01 0.00 0.00 0.01
0.00 0.00 0.00 0.00 0.00 0.00 0.00 0.00 0.00 0.00 0.00 0.01 0.01 0.00 0.00 0.00 0.00 0.00 0.00 0.00 0.00 0.00 0.00 0.00 0.00 0.01 0.02 0.03 0.02 0.01 0.01 0.01 0.01 0.02 0.02 0.10 0.14 0.06 0.03 0.02 0.01 0.01 0.01
0.00 0.00 0.00 0.00 0.00 0.00 0.00 0.00 0.01 0.01 0.01 0.01 0.01 0.01 0.00 0.00 0.00 0.00 0.00 0.00 0.00 0.00 0.00 0.00 0.00 0.01 0.03 0.02 0.01 0.02 0.02 0.02 0.01 0.01 0.02 0.06 0.08 0.03 0.01 0.01 0.01 0.01 0.00
0.00 0.00 0.00 0.00 0.00 0.00 0.01 0.01 0.01 0.01 0.01 0.01 0.01 0.00 0.00 0.00 0.00 0.00 0.00 0.00 0.00 0.00 0.00 0.00 0.00 0.01 0.01 0.01 0.01 0.01 0.01 0.01 0.00 0.00 0.01 0.01 0.01 0.00 0.00 0.00 0.00 0.00 0.00
0.00 0.00 0.00 0.00 0.00 0.00 0.01 0.00 0.00 0.00 0.00 0.00 0.00 0.00 0.00 0.00 0.00 0.00 0.01 0.00 0.00 0.00 0.00 0.00 0.00 0.00 0.00 0.00 0.00 0.00 0.00 0.00 0.00 0.00 0.00 0.00 0.00 0.00 0.00 0.00 0.00 0.00 0.00
0.00 0.00 0.00 0.00 0.00 0.01 0.01 0.00 0.00 0.00 0.00 0.00 0.00 0.00 0.01 0.04 0.05 0.04 0.02 0.00 0.00 0.00 0.00 0.00 0.00 0.00 0.00 0.00 0.00 0.00 0.00 0.00 0.00 0.00 0.00 0.00 0.00 0.00 0.00 0.00 0.00 0.00 0.00
0.00 0.00 0.00 0.00 0.00 0.00 0.00 0.00 0.00 0.00 0.00 0.01 0.03 0.01 0.04 0.08 0.07 0.04 0.01 0.00 0.00 0.00 0.00 0.00 0.00 0.00 0.00 0.00 0.00 0.00 0.00 0.00 0.00 0.00 0.00 0.00 0.00 0.00 0.00 0.00 0.00 0.00 0.00
0.00 0.00 0.00 0.00 0.00 0.00 0.00 0.00 0.00 0.00 0.00 0.01 0.02 0.02 0.05 0.03 0.01 0.01 0.01 0.01 0.00 0.00 0.00 0.00 0.00 0.00 0.00 0.00 0.00 0.00 0.00 0.00 0.00 0.00 0.00 0.00 0.00 0.00 0.00 0.00 0.00 0.00 0.00
0.00 0.00 0.00 0.00 0.00 0.00 0.00 0.00 0.00 0.00 0.00 0.00 0.01 0.00 0.01 0.02 0.01 0.01 0.01 0.01 0.01 0.00 0.00 0.00 0.00 0.00 0.00 0.00 0.00 0.00 0.00 0.00 0.00 0.00 0.00 0.00 0.00 0.00 0.00 0.00 0.00 0.00 0.00
0.00 0.00 0.00 0.00 0.00 0.00 0.00 0.00 0.00 0.00 0.00 0.00 0.00 0.00 0.01 0.01 0.01 0.00 0.00 0.00 0.00 0.00 0.00 0.00 0.00 0.00 0.00 0.00 0.00 0.00 0.00 0.00 0.00 0.00 0.00 0.00 0.00 0.00 0.00 0.00 0.00 0.00 0.00
0.00 0.00 0.00 0.00 0.00 0.00 0.00 0.00 0.00 0.00 0.00 0.00 0.00 0.00 0.00 0.01 0.02 0.01 0.00 0.00 0.00 0.00 0.00 0.00 0.00 0.00 0.00 0.00 0.00 0.00 0.00 0.00 0.00 0.00 0.00 0.00 0.00 0.00 0.00 0.00 0.00 0.00 0.00
0.00 0.00 0.00 0.00 0.00 0.00 0.00 0.00 0.00 0.00 0.00 0.00 0.01 0.00 0.00 0.01 0.01 0.01 0.01 0.01 0.01 0.00 0.00 0.00 0.00 0.00 0.00 0.00 0.00 0.00 0.00 0.00 0.00 0.00 0.00 0.01 0.01 0.02 0.00 0.00 0.00 0.00 0.00
0.02 0.00 0.00 0.00 0.00 0.00 0.00 0.00 0.00 0.00 0.01 0.01 0.01 0.01 0.00 0.00 0.00 0.00 0.01 0.01 0.00 0.00 0.00 0.00 0.00 0.00 0.00 0.00 0.00 0.00 0.00 0.00 0.00 0.01 0.01 0.01 0.01 0.01 0.02 0.01 0.00 0.00 0.00
0.03 0.01 0.00 0.00 0.00 0.00 0.00 0.00 0.01 0.01 0.02 0.01 0.02 0.01 0.00 0.00 0.00 0.00 0.01 0.01 0.00 0.00 0.00 0.00 0.01 0.00 0.01 0.00 0.00 0.00 0.00 0.00 0.01 0.01 0.01 0.00 0.00 0.01 0.01 0.01 0.01 0.01 0.01
0.04 0.02 0.01 0.00 0.00 0.00 0.00 0.00 0.01 0.01 0.02 0.01 0.02 0.02 0.01 0.00 0.00 0.00 0.00 0.00 0.00 0.00 0.00 0.00 0.00 0.00 0.00 0.00 0.00 0.00 0.00 0.00 0.00 0.00 0.00 0.00 0.00 0.00 0.00 0.01 0.00 0.01 0.01
0.08 0.04 0.03 0.02 0.01 0.01 0.01 0.01 0.01 0.01 0.01 0.02 0.02 0.01 0.01 0.01 0.01 0.01 0.01 0.00 0.00 0.00 0.00 0.00 0.00 0.00 0.00 0.00 0.00 0.00 0.00 0.00 0.00 0.00 0.00 0.00 0.00 0.00 0.00 0.00 0.00 0.00 0.00
0.12 0.08 0.07 0.06 0.04 0.03 0.04 0.03 0.03 0.03 0.03 0.03 0.03 0.03 0.02 0.01 0.01 0.01 0.00 0.00 0.00 0.00 0.00 0.00 0.00 0.00 0.00 0.00 0.00 0.00 0.00 0.00 0.00 0.00 0.00 0.00 0.00 0.00 0.00 0.00 0.00 0.00 0.00
0.11 0.08 0.11 0.13 0.12 0.11 0.09 0.08 0.07 0.08 0.07 0.05 0.04 0.03 0.02 0.02 0.01 0.00 0.00 0.00 0.00 0.00 0.00 0.00 0.00 0.00 0.00 0.00 0.00 0.00 0.00 0.00 0.00 0.00 0.00 0.00 0.00 0.00 0.00 0.00 0.00 0.00 0.00
0.06 0.09 0.15 0.18 0.19 0.16 0.15 0.13 0.14 0.13 0.10 0.08 0.05 0.04 0.02 0.01 0.00 0.00 0.00 0.00 0.00 0.00 0.00 0.00 0.00 0.00 0.00 0.00 0.00 0.00 0.00 0.00 0.00 0.00 0.00 0.00 0.00 0.00 0.00 0.00 0.00 0.00 0.00
0.08 0.12 0.19 0.24 0.25 0.22 0.20 0.19 0.19 0.17 0.13 0.10 0.06 0.04 0.02 0.01 0.00 0.00 0.00 0.00 0.00 0.00 0.00 0.00 0.00 0.00 0.00 0.00 0.00 0.00 0.00 0.00 0.00 0.00 0.00 0.00 0.00 0.00 0.00 0.00 0.00 0.00 0.00
0.07 0.13 0.19 0.24 0.25 0.23 0.23 0.21 0.17 0.16 0.13 0.09 0.05 0.03 0.02 0.00 0.00 0.00 0.00 0.00 0.00 0.00 0.00 0.00 0.00 0.00 0.00 0.00 0.00 0.00 0.00 0.00 0.00 0.00 0.00 0.00 0.00 0.00 0.00 0.00 0.00 0.00 0.00
MSLP
1010.35 1010.49 1010.79 1011.23 1011.76 1012.30 1012.77 1013.14 1013.40 1013.57 1013.70 1013.85 1014.06 1014.34 1014.69 1015.05 1015.40 1015.67 1015.87 1015.98 1016.05 1016.11 1016.19 1016.33 1016.51 1016.71 1016.90 1017.03 1017.10 1017.08 1017.00 1016.90 1016.81 1016.78 1016.81 1016.90 1017.05 1017.21 1017.36 1017.49 1017.58 1017.66 1017.74
1010.45 1010.67 1011.04 1011.54 1012.09 1012.62 1013.07 1013.40 1013.61 1013.74 1013.85 1014.00 1014.24 1014.56 1014.94 1015.34 1015.70 1015.98 1016.15 1016.24 1016.27 1016.30 1016.35 1016.46 1016.61 1016.80 1016.96 1017.08 1017.11 1017.07 1016.98 1016.86 1016.78 1016.75 1016.79 1016.91 1017.07 1017.25 1017.41 1017.54 1017.64 1017.72 1017.80
1010.41 1010.72 1011.18 1011.74 1012.33 1012.88 1013.33 1013.64 1013.82 1013.94 1014.04 1014.19 1014.43 1014.76 1015.15 1015.54 1015.88 1016.14 1016.28 1016.34 1016.35 1016.36 1016.41 1016.52 1016.67 1016.84 1016.99 1017.08 1017.08 1017.01 1016.89 1016.76 1016.67 1016.66 1016.72 1016.87 1017.05 1017.25 1017.43 1017.57 1017.68 1017.76 1017.85
1010.25 1010.66 1011.21 1011.85 1012.50 1013.08 1013.54 1013.86 1014.04 1014.15 1014.26 1014.41 1014.64 1014.96 1015.32 1015.68 1015.98 1016.19 1016.30 1016.34 1016.35 1016.38 1016.45 1016.57 1016.74 1016.91 1017.05 1017.10 1017.07 1016.95 1016.80 1016.65 1016.56 1016.56 1016.65 1016.83 1017.05 1017.27 1017.47 1017.62 1017.73 1017.82 1017.92
1010.01 1010.51 1011.15 1011.88 1012.60 1013.23 1013.73 1014.07 1014.27 1014.40 1014.51 1014.66 1014.88 1015.17 1015.48 1015.79 1016.03 1016.20 1016.28 1016.32 1016.35 1016.40 1016.52 1016.69 1016.89 1017.06 1017.18 1017.19 1017.11 1016.94 1016.74 1016.57 1016.47 1016.49 1016.61 1016.82 1017.08 1017.33 1017.55 1017.71 1017.83 1017.92 1018.03
1009.74 1010.33 1011.07 1011.87 1012.66 1013.35 1013.88 1014.26 1014.49 1014.64 1014.77 1014.93 1015.14 1015.39 1015.66 1015.91 1016.10 1016.22 1016.28 1016.32 1016.38 1016.49 1016.66 1016.88 1017.11 1017.29 1017.39 1017.36 1017.21 1016.99 1016.74 1016.54 1016.43 1016.46 1016.61 1016.86 1017.15 1017.44 1017.67 1017.85 1017.97 1018.06 1018.15
1009.51 1010.18 1010.99 1011.86 1012.70 1013.43 1014.01 1014.41 1014.68 1014.87 1015.02 1015.19 1015.40 1015.63 1015.86 1016.06 1016.20 1016.28 1016.33 1016.38 1016.47 1016.63 1016.86 1017.12 1017.38 1017.56 1017.62 1017.54 1017.34 1017.05 1016.75 1016.52 1016.40 1016.44 1016.63 1016.91 1017.24 1017.56 1017.82 1018.00 1018.12 1018.20 1018.28
1009.37 1010.10 1010.95 1011.87 1012.73 1013.48 1014.07 1014.50 1014.80 1015.01 1015.20 1015.40 1015.61 1015.84 1016.05 1016.22 1016.33 1016.39 1016.42 1016.48 1016.60 1016.79 1017.05 1017.34 1017.61 1017.78 1017.80 1017.67 1017.41 1017.07 1016.73 1016.47 1016.36 1016.42 1016.63 1016.95 1017.32 1017.67 1017.94 1018.13 1018.24 1018.31 1018.38
1009.32 1010.08 1010.96 1011.88 1012.74 1013.48 1014.06 1014.48 1014.80 1015.04 1015.26 1015.49 1015.74 1015.98 1016.19 1016.35 1016.45 1016.49 1016.52 1016.57 1016.69 1016.90 1017.16 1017.45 1017.71 1017.85 1017.84 1017.67 1017.37 1017.00 1016.64 1016.37 1016.26 1016.35 1016.59 1016.95 1017.35 1017.72 1018.02 1018.21 1018.32 1018.37 1018.42
1009.33 1010.11 1010.98 1011.87 1012.70 1013.39 1013.93 1014.33 1014.64 1014.90 1015.16 1015.43 1015.72 1016.01 1016.24 1016.41 1016.51 1016.55 1016.56 1016.60 1016.71 1016.89 1017.13 1017.40 1017.62 1017.74 1017.71 1017.51 1017.19 1016.81 1016.46 1016.21 1016.12 1016.23 1016.51 1016.89 1017.32 1017.71 1018.02 1018.22 1018.33 1018.37 1018.40
1009.35 1010.14 1010.99 1011.83 1012.58 1013.20 1013.67 1014.03 1014.32 1014.59 1014.87 1015.20 1015.54 1015.88 1016.16 1016.36 1016.47 1016.51 1016.51 1016.53 1016.60 1016.75 1016.95 1017.18 1017.36 1017.45 1017.41 1017.21 1016.91 1016.56 1016.23 1016.02 1015.97 1016.10 1016.40 1016.80 1017.24 1017.64 1017.96 1018.17 1018.28 1018.32 1018.34
1009.34 1010.12 1010.94 1011.71 1012.38 1012.91 1013.30 1013.60 1013.86 1014.12 1014.44 1014.81 1015.21 1015.60 1015.94 1016.19 1016.33 1016.38 1016.38 1016.37 1016.41 1016.50 1016.66 1016.84 1016.99 1017.06 1017.02 1016.85 1016.59 1016.29 1016.02 1015.86 1015.84 1016.00 1016.30 1016.70 1017.14 1017.54 1017.86 1018.07 1018.19 1018.23 1018.25
1009.24 1010.03 1010.81 1011.51 1012.10 1012.54 1012.86 1013.10 1013.32 1013.58 1013.91 1014.31 1014.77 1015.22 1015.62 1015.92 1016.10 1016.18 1016.19 1016.17 1016.17 1016.23 1016.34 1016.47 1016.60 1016.68 1016.66 1016.54 1016.34 1016.11 1015.90 1015.78 1015.79 1015.95 1016.24 1016.62 1017.03 1017.41 1017.71 1017.93 1018.06 1018.13 1018.16
1009.04 1009.82 1010.58 1011.23 1011.75 1012.13 1012.39 1012.59 1012.78 1013.03 1013.37 1013.80 1014.30 1014.79 1015.25 1015.60 1015.84 1015.95 1015.99 1015.98 1015.97 1016.00 1016.08 1016.20 1016.32 1016.40 1016.42 1016.35 1016.22 1016.06 1015.91 1015.83 1015.85 1015.99 1016.24 1016.56 1016.91 1017.25 1017.54 1017.76 1017.90 1018.00 1018.06
1008.72 1009.51 1010.25 1010.88 1011.37 1011.72 1011.96 1012.14 1012.33 1012.58 1012.93 1013.37 1013.89 1014.42 1014.90 1015.31 1015.59 1015.77 1015.84 1015.86 1015.87 1015.91 1015.98 1016.09 1016.22 1016.32 1016.37 1016.35 1016.28 1016.17 1016.06 1015.99 1015.99 1016.09 1016.27 1016.51 1016.79 1017.07 1017.33 1017.54 1017.70 1017.83 1017.92
1008.30 1009.09 1009.84 1010.48 1010.98 1011.35 1011.62 1011.83 1012.04 1012.31 1012.66 1013.11 1013.62 1014.15 1014.66 1015.10 1015.43 1015.66 1015.79 1015.86 1015.92 1015.98 1016.07 1016.19 1016.32 1016.44 1016.52 1016.54 1016.50 1016.42 1016.32 1016.24 1016.19 1016.21 1016.30 1016.45 1016.64 1016.85 1017.06 1017.26 1017.44 1017.60 1017.74
1007.79 1008.60 1009.37 1010.05 1010.61 1011.05 1011.39 1011.67 1011.94 1012.24 1012.61 1013.04 1013.53 1014.05 1014.55 1015.00 1015.37 1015.64 1015.84 1015.99 1016.10 1016.21 1016.33 1016.47 1016.60 1016.73 1016.82 1016.85 1016.82 1016.74 1016.62 1016.50 1016.39 1016.32 1016.31 1016.35 1016.44 1016.58 1016.75 1016.94 1017.13 1017.31 1017.49
1007.26 1008.07 1008.87 1009.61 1010.26 1010.81 1011.27 1011.66 1012.01 1012.37 1012.75 1013.17 1013.63 1014.10 1014.57 1015.01 1015.40 1015.72 1015.99 1016.20 1016.38 1016.54 1016.69 1016.85 1016.99 1017.11 1017.18 1017.20 1017.16 1017.05 1016.90 1016.72 1016.54 1016.39 1016.27 1016.22 1016.23 1016.30 1016.42 1016.59 1016.78 1016.99 1017.19
1006.74 1007.56 1008.39 1009.20 1009.96 1010.63 1011.23 1011.75 1012.21 1012.63 1013.04 1013.44 1013.86 1014.28 1014.71 1015.12 1015.51 1015.87 1016.18 1016.46 1016.70 1016.91 1017.10 1017.27 1017.40 1017.50 1017.55 1017.54 1017.46 1017.32 1017.13 1016.90 1016.66 1016.43 1016.23 1016.09 1016.03 1016.03 1016.12 1016.26 1016.45 1016.66 1016.87
1006.30 1007.12 1007.98 1008.85 1009.71 1010.52 1011.26 1011.91 1012.48 1012.98 1013.41 1013.80 1014.17 1014.54 1014.91 1015.29 1015.66 1016.04 1016.39 1016.72 1017.02 1017.28 1017.49 1017.67 1017.79 1017.86 1017.87 1017.82 1017.71 1017.54 1017.31 1017.04 1016.76 1016.48 1016.23 1016.03 1015.91 1015.87 1015.91 1016.02 1016.19 1016.38 1016.58
1006.01 1006.82 1007.70 1008.62 1009.55 1010.46 1011.32 1012.09 1012.76 1013.33 1013.79 1014.17 1014.51 1014.82 1015.14 1015.48 1015.84 1016.22 1016.60 1016.97 1017.31 1017.60 1017.83 1018.00 1018.11 1018.15 1018.14 1018.06 1017.92 1017.72 1017.48 1017.20 1016.90 1016.60 1016.33 1016.10 1015.94 1015.86 1015.85 1015.92 1016.05 1016.21 1016.37
1005.94 1006.74 1007.61 1008.55 1009.52 1010.49 1011.42 1012.28 1013.02 1013.64 1014.12 1014.51 1014.82 1015.09 1015.37 1015.67 1016.02 1016.40 1016.80 1017.19 1017.56 1017.87 1018.12 1018.29 1018.38 1018.40 1018.36 1018.27 1018.12 1017.93 1017.70 1017.43 1017.15 1016.86 1016.58 1016.33 1016.15 1016.02 1015.97 1015.99 1016.05 1016.15 1016.25
1006.13 1006.93 1007.78 1008.70 1009.66 1010.64 1011.59 1012.48 1013.25 1013.90 1014.40 1014.78 1015.08 1015.34 1015.59 1015.87 1016.20 1016.58 1016.99 1017.40 1017.78 1018.11 1018.36 1018.52 1018.61 1018.62 1018.57 1018.48 1018.35 1018.18 1017.98 1017.76 1017.51 1017.24 1016.97 1016.73 1016.51 1016.35 1016.24 1016.19 1016.18 1016.19 1016.20
1006.62 1007.42 1008.24 1009.10 1010.01 1010.93 1011.85 1012.71 1013.48 1014.12 1014.63 1015.01 1015.31 1015.55 1015.80 1016.07 1016.40 1016.77 1017.18 1017.60 1017.98 1018.31 1018.55 1018.71 1018.80 1018.81 1018.77 1018.70 1018.59 1018.47 1018.32 1018.14 1017.94 1017.71 1017.46 1017.21 1016.97 1016.76 1016.59 1016.46 1016.35 1016.27 1016.19
1007.36 1008.18 1008.96 1009.75 1010.56 1011.39 1012.22 1013.01 1013.73 1014.34 1014.83 1015.21 1015.50 1015.75 1016.00 1016.28 1016.60 1016.97 1017.37 1017.77 1018.14 1018.46 1018.70 1018.85 1018.93 1018.95 1018.93 1018.88 1018.82 1018.74 1018.64 1018.52 1018.36 1018.16 1017.93 1017.68 1017.41 1017.15 1016.91 1016.70 1016.50 1016.32 1016.15
1008.31 1009.15 1009.89 1010.60 1011.30 1012.00 1012.71 1013.39 1014.02 1014.57 1015.03 1015.40 1015.70 1015.95 1016.20 1016.48 1016.79 1017.14 1017.52 1017.90 1018.25 1018.54 1018.76 1018.90 1018.98 1019.00 1019.00 1018.98 1018.95 1018.92 1018.87 1018.79 1018.67 1018.50 1018.28 1018.02 1017.73 1017.43 1017.13 1016.83 1016.55 1016.29 1016.03
Thickness
5808 5802 5794 5790 5786 5783 5781 5779 5776 5774 5772 5769 5767 5766 5765 5763 5762 5761 5760 5759 5758 5757 5756 5755 5754 5753 5752 5751 5752 5752 5753 5753 5753 5753 5753 5753 5753 5753 5752 5751 5751 5751 5749
5806 5798 5791 5786 5782 5779 5776 5774 5772 5770 5767 5766 5764 5762 5761 5760 5758 5757 5756 5755 5754 5753 5753 5751 5750 5749 5748 5748 5748 5748 5749 5749 5750 5750 5750 5749 5749 5748 5748 5747 5747 5746 5745
5803 5795 5788 5783 5779 5775 5772 5770 5768 5766 5764 5762 5760 5759 5757 5756 5754 5753 5752 5751 5750 5749 5748 5747 5746 5746 5745 5745 5745 5745 5746 5746 5746 5747 5747 5747 5745 5744 5743 5743 5742 5741 5741
5801 5794 5787 5781 5777 5773 5770 5767 5764 5762 5760 5759 5757 5755 5753 5752 5750 5749 5748 5747 5746 5745 5744 5743 5742 5742 5742 5742 5741 5742 5743 5743 5743 5744 5745 5744 5741 5738 5739 5739 5738 5737 5736
5802 5793 5784 5779 5774 5770 5767 5765 5762 5759 5757 5755 5753 5751 5749 5747 5746 5745 5744 5743 5742 5741 5740 5739 5738 5738 5738 5738 5737 5738 5739 5740 5741 5743 5743 5742 5737 5733 5734 5735 5734 5733 5732
5800 5790 5782 5777 5773 5769 5766 5763 5759 5756 5754 5751 5749 5746 5745 5743 5742 5742 5740 5739 5738 5737 5736 5735 5734 5734 5734 5734 5734 5734 5736 5737 5739 5742 5742 5738 5731 5728 5729 5730 5730 5729 5728
5800 5789 5781 5776 5771 5767 5764 5760 5757 5753 5751 5748 5745 5743 5741 5740 5739 5738 5737 5736 5735 5734 5733 5732 5730 5730 5730 5730 5730 5731 5733 5735 5736 5739 5739 5734 5728 5725 5724 5724 5723 5723 5722
5799 5788 5779 5773 5769 5765 5761 5757 5754 5751 5748 5745 5742 5740 5738 5737 5736 5735 5733 5733 5732 5730 5729 5728 5727 5726 5726 5726 5727 5728 5730 5731 5733 5735 5734 5730 5725 5721 5719 5717 5717 5716 5715
5801 5788 5779 5772 5767 5762 5758 5755 5751 5748 5745 5742 5739 5737 5735 5733 5732 5731 5729 5728 5727 5726 5725 5724 5723 5723 5723 5723 5724 5725 5727 5728 5728 5729 5729 5724 5719 5715 5712 5710 5709 5708 5708
5802 5791 5782 5775 5769 5763 5757 5753 5749 5745 5742 5739 5737 5734 5732 5731 5729 5727 5725 5724 5723 5722 5721 5720 5720 5720 5720 5720 5721 5723 5724 5724 5726 5724 5722 5718 5714 5710 5706 5704 5702 5701 5701
5799 5792 5786 5779 5772 5766 5759 5753 5748 5744 5740 5737 5735 5732 5730 5729 5727 5724 5723 5721 5720 5719 5718 5718 5718 5718 5717 5717 5718 5719 5719 5721 5724 5721 5719 5715 5711 5707 5702 5699 5697 5696 5695
5793 5791 5789 5782 5776 5770 5763 5753 5749 5745 5741 5737 5735 5732 5729 5728 5726 5724 5721 5719 5717 5716 5715 5715 5715 5715 5714 5715 5714 5715 5716 5718 5719 5716 5713 5711 5707 5703 5699 5695 5692 5690 5689
5794 5791 5790 5784 5779 5774 5766 5757 5754 5750 5743 5740 5736 5733 5730 5728 5725 5723 5719 5716 5715 5714 5713 5713 5713 5713 5713 5714 5714 5713 5714 5715 5713 5709 5705 5704 5701 5698 5695 5691 5688 5685 5684
5796 5793 5791 5786 5780 5775 5770 5764 5759 5754 5747 5744 5738 5734 5730 5728 5726 5723 5720 5716 5715 5715 5715 5714 5714 5714 5713 5711 5710 5709 5708 5708 5706 5700 5697 5696 5694 5692 5689 5686 5683 5680 5678
5798 5794 5792 5786 5779 5774 5769 5764 5761 5756 5749 5744 5738 5733 5730 5728 5724 5723 5719 5716 5715 5714 5712 5710 5710 5710 5708 5706 5705 5704 5703 5701 5698 5694 5689 5688 5686 5684 5681 5678 5675 5672 5670
5801 5794 5790 5784 5777 5771 5766 5762 5759 5755 5749 5745 5739 5733 5729 5725 5721 5719 5717 5713 5711 5709 5707 5705 5705 5703 5702 5700 5698 5696 5695 5693 5691 5687 5683 5680 5678 5675 5673 5670 5667 5664 5661
5802 5796 5788 5783 5776 5769 5764 5760 5757 5754 5748 5744 5737 5732 5726 5722 5718 5715 5713 5709 5705 5704 5702 5700 5698 5696 5695 5693 5691 5689 5687 5684 5682 5680 5677 5673 5669 5666 5663 5660 5657 5654 5650
5802 5794 5788 5784 5775 5767 5763 5758 5756 5754 5748 5742 5735 5729 5723 5718 5714 5710 5707 5703 5700 5698 5696 5692 5689 5686 5682 5681 5679 5678 5676 5674 5672 5670 5669 5665 5662 5658 5654 5650 5646 5643 5639
5802 5794 5786 5782 5774 5766 5762 5756 5753 5748 5743 5737 5731 5725 5718 5713 5708 5704 5700 5695 5692 5690 5687 5683 5677 5674 5670 5668 5667 5667 5666 5664 5662 5660 5658 5655 5652 5648 5643 5638 5634 5630 5627
5798 5791 5784 5777 5771 5764 5758 5751 5745 5740 5734 5729 5723 5718 5711 5705 5699 5695 5691 5685 5682 5680 5675 5670 5666 5663 5659 5657 5657 5656 5654 5652 5650 5648 5646 5644 5640 5635 5630 5625 5619 5615 5612
5786 5780 5778 5771 5765 5759 5751 5743 5736 5729 5724 5718 5712 5705 5701 5696 5689 5684 5681 5676 5672 5667 5662 5659 5655 5651 5648 5646 5642 5641 5642 5642 5640 5637 5634 5631 5627 5622 5617 5611 5605 5601 5598
5776 5774 5771 5765 5759 5752 5745 5738 5731 5723 5715 5708 5701 5694 5689 5685 5679 5674 5668 5665 5661 5655 5651 5648 5643 5638 5634 5631 5626 5622 5621 5622 5624 5621 5614 5612 5609 5605 5600 5595 5590 5586 5583
5773 5768 5764 5757 5750 5742 5736 5728 5719 5711 5703 5695 5689 5685 5680 5675 5669 5663 5658 5653 5648 5643 5639 5634 5629 5624 5619 5615 5612 5607 5602 5601 5599 5600 5595 5592 5589 5586 5582 5577 5573 5570 5568
5767 5762 5754 5746 5738 5730 5724 5717 5707 5698 5690 5685 5679 5674 5669 5665 5659 5653 5648 5642 5636 5630 5626 5620 5613 5608 5604 5600 5597 5594 5589 5585 5579 5578 5575 5573 5572 5569 5565 5561 5558 5555 5553
5757 5748 5741 5732 5724 5718 5712 5706 5697 5689 5681 5675 5669 5662 5658 5654 5649 5643 5637 5630 5623 5617 5612 5605 5599 5593 5588 5583 5578 5574 5570 5567 5564 5560 5559 5557 5555 5552 5548 5545 5543 5540 5538
5744 5735 5727 5719 5711 5705 5699 5693 5686 5678 5671 5664 5658 5651 5648 5644 5639 5632 5626 5618 5611 5605 5598 5592 5585 5580 5575 5568 5561 5557 5552 5549 5545 5542 5540 5538 5536 5534 5530 5527 5524 5523 5522